Location: Unspecified
(44.4377°N, 88.0525°W)
Time: 06:37:16
(UTC-05:00)

Cosmos 2058 - Visible Passes

Search period start: 01 July 2016 00:00
Search period end: 11 July 2016 00:00
Orbit: 564 x 587 km, 82.5° (Epoch: 01 July)

Date Brightness Start Highest point End Pass type
(mag) Time Alt. Az. Time Alt. Az. Time Alt. Az.
01 Jul 4.3 22:04:25 10° SSW 22:08:16 39° WNW 22:12:09 10° N visible
02 Jul 4.8 22:08:22 10° SW 22:11:59 30° WNW 22:15:38 10° NNW visible
03 Jul 5.3 22:12:25 10° SW 22:15:43 23° WNW 22:19:01 10° NNW visible
04 Jul 5.7 22:16:38 10° WSW 22:19:28 18° WNW 22:22:18 10° NNW visible
05 Jul 5.9 22:21:06 10° W 22:23:14 14° WNW 22:25:23 10° NW visible
06 Jul 6.3 22:26:15 10° WNW 22:27:02 10° WNW 22:27:49 10° NW visible
